This is the latest recevied weather packets stored in our database for station/object N9XRG. If no packets are shown the sender has not sent any weather packets the latest 10 day(s).
| Time | Temp. | Humidity | Pressure | Rain* | Wind** | Luminosity | Snow |
|---|---|---|---|---|---|---|---|
| 1778134533 | 3.89° C | 85% | 1014.6 hPa | 0 mm | - | 0 W/m² | - |
| 1778134231 | 3.89° C | 85% | 1014.8 hPa | 0 mm | - | 0 W/m² | - |
| 1778133929 | 3.89° C | 85% | 1015 hPa | 0 mm | - | 0 W/m² | - |
| 1778133626 | 4.44° C | 83% | 1014.7 hPa | 0 mm | - | 0 W/m² | - |
| 1778133326 | 4.44° C | 83% | 1014.9 hPa | 0 mm | - | 0 W/m² | - |
| 1778133022 | 4.44° C | 80% | 1014.8 hPa | 0 mm | - | 0 W/m² | - |
| 1778132719 | 5° C | 81% | 1014.7 hPa | 0 mm | - | 0 W/m² | - |
| 1778132416 | 5° C | 80% | 1014.6 hPa | 0 mm | - | 0 W/m² | - |
| 1778132114 | 4.44° C | 82% | 1014.7 hPa | 0 mm | - | 0 W/m² | - |
| 1778131812 | 4.44° C | 85% | 1014.7 hPa | 0 mm | - | 0 W/m² | - |
| 1778131509 | 4.44° C | 84% | 1014.8 hPa | 0 mm | - | 0 W/m² | - |
| 1778131206 | 4.44° C | 84% | 1014.8 hPa | 0 mm | - | 0 W/m² | - |
| 1778130904 | 4.44° C | 84% | 1014.8 hPa | 0 mm | - | 0 W/m² | - |
| 1778130600 | 4.44° C | 84% | 1014.7 hPa | 0 mm | - | 0 W/m² | - |
| 1778130296 | 4.44° C | 85% | 1014.7 hPa | 0 mm | - | 0 W/m² | - |
| 1778129993 | 4.44° C | 84% | 1014.7 hPa | 0 mm | - | 0 W/m² | - |
| 1778129690 | 5° C | 83% | 1014.8 hPa | 0 mm | - | 0 W/m² | - |
| 1778129387 | 5° C | 82% | 1014.4 hPa | 0 mm | - | 0 W/m² | - |
| 1778129084 | 5° C | 81% | 1014.6 hPa | 0 mm | - | 0 W/m² | - |
| 1778128780 | 5° C | 81% | 1014.5 hPa | 0 mm | - | 0 W/m² | - |
| 1778128476 | 5° C | 82% | 1014.5 hPa | 0 mm | - | 0 W/m² | - |
| 1778128173 | 5° C | 83% | 1014.4 hPa | 0 mm | - | 0 W/m² | - |
| 1778127870 | 5° C | 85% | 1014.5 hPa | 0 mm | - | 0 W/m² | - |
| 1778127565 | 5° C | 88% | 1014.6 hPa | 0 mm | - | 0 W/m² | - |
| 1778127262 | 5° C | 88% | 1014.5 hPa | 0 mm | - | 0 W/m² | - |
* Rain latest hour (hover to see other rain measurements)
** Current wind speed in m/s (hover to see current wind gust speed)